Location: Omaha
(41.2590°N, 95.9380°W)
Time: 18:42:11
(UTC-06:00)

Vanguard 1 - All Passes

Search period start: 16 December 2017 00:00
Search period end: 26 December 2017 00:00
Orbit: 650 x 3834 km, 34.2° (Epoch: 15 December)

Date Brightness Start Highest point End Pass type
(mag) Time Alt. Az. Time Alt. Az. Time Alt. Az.
16 Dec - 05:35:59 10° S 05:51:58 24° SE 06:06:40 10° E visible
16 Dec - 07:54:23 10° SW 08:16:11 50° SSE 08:32:10 10° E daylight
16 Dec - 10:19:30 10° WSW 10:40:58 66° S 10:53:33 10° E daylight
16 Dec - 12:47:21 10° W 13:04:02 57° SSW 13:13:03 10° ESE daylight
16 Dec - 15:15:29 10° W 15:23:57 23° SW 15:29:38 10° S daylight
17 Dec - 05:54:36 10° SSW 06:12:50 31° SE 06:29:15 10° E visible
17 Dec - 08:15:00 10° SW 08:37:26 56° SSE 08:53:26 10° E daylight
17 Dec - 10:41:03 10° WSW 11:02:16 68° S 11:14:30 10° ESE daylight
17 Dec - 13:09:05 10° W 13:24:54 50° SSW 13:33:36 10° SE daylight
17 Dec - 15:38:12 10° W 15:44:10 16° SW 15:48:41 10° SSW daylight
18 Dec - 04:04:01 10° SE 04:10:44 12° SE 04:17:31 10° ESE visible
18 Dec - 06:13:58 10° SSW 06:33:45 38° SE 06:51:17 10° E visible
18 Dec - 08:35:55 10° WSW 08:58:46 61° SSE 09:14:36 10° E daylight
18 Dec - 11:02:40 10° W 11:23:31 67° S 11:35:23 10° ESE daylight
18 Dec - 13:30:52 10° W 13:45:36 43° SSW 13:53:59 10° SE daylight
19 Dec - 04:18:44 10° SSE 04:31:17 18° SE 04:44:05 10° E visible
19 Dec - 06:33:50 10° SSW 06:54:47 45° SSE 07:12:57 10° E visible
19 Dec - 08:57:04 10° WSW 09:20:08 66° S 09:35:42 10° E daylight
19 Dec - 11:24:22 10° W 11:44:43 64° SSW 11:56:13 10° ESE daylight
19 Dec - 13:52:47 10° W 14:06:09 35° SW 14:14:08 10° SSE daylight
20 Dec - 04:36:21 10° S 04:51:53 25° SE 05:07:47 10° E visible
20 Dec - 06:54:06 10° SW 07:15:55 52° SSE 07:34:26 10° E visible
20 Dec - 09:18:25 10° WSW 09:41:32 69° S 09:56:46 10° E daylight
20 Dec - 11:46:06 10° W 12:05:47 60° SSW 12:16:55 10° ESE daylight
20 Dec - 14:14:55 10° W 14:26:31 27° SW 14:33:57 10° S daylight
21 Dec - 04:55:05 10° S 05:12:33 32° SE 05:30:27 10° E visible
21 Dec - 07:14:42 10° SW 07:37:09 58° SSE 07:55:46 10° E visible
21 Dec - 09:39:54 10° WSW 10:02:56 70° S 10:17:47 10° ESE daylight
21 Dec - 12:07:52 10° W 12:26:44 54° SSW 12:37:30 10° SE daylight
21 Dec - 14:37:32 10° W 14:46:45 20° SW 14:53:13 10° S daylight
22 Dec - 03:05:14 10° SE 03:11:06 12° ESE 03:17:14 10° ESE visible
22 Dec - 05:14:30 10° SSW 05:33:19 39° SE 05:52:33 10° E visible
22 Dec - 07:35:33 10° WSW 07:58:29 63° SSE 08:17:02 10° E daylight
22 Dec - 10:01:29 10° W 10:24:19 69° S 10:38:44 10° ESE daylight
22 Dec - 12:29:41 10° W 12:47:31 46° SSW 12:57:55 10° SE daylight
22 Dec - 15:01:14 10° W 15:06:50 14° SW 15:11:21 10° SSW daylight
23 Dec - 03:19:57 10° SSE 03:31:25 18° SE 03:44:06 10° E visible
23 Dec - 05:34:23 10° SSW 05:54:13 46° SSE 06:14:19 10° E visible
23 Dec - 07:56:39 10° WSW 08:19:55 68° S 08:38:14 10° E daylight
23 Dec - 10:23:08 10° W 10:45:36 66° SSW 10:59:37 10° ESE daylight
23 Dec - 12:51:37 10° W 13:08:07 39° SW 13:18:05 10° SSE daylight
24 Dec - 03:37:39 10° S 03:51:48 25° SE 04:07:57 10° E visible
24 Dec - 05:54:39 10° SW 06:15:16 53° SSE 06:35:54 10° E visible
24 Dec - 08:17:55 10° WSW 08:41:23 70° S 08:59:23 10° E daylight
24 Dec - 10:44:50 10° W 11:06:48 62° SSW 11:20:23 10° ESE daylight
24 Dec - 13:13:47 10° W 13:28:32 31° SW 13:37:56 10° SSE daylight
25 Dec - 03:56:27 10° S 04:12:17 31° SE 04:30:43 10° E visible
25 Dec - 06:15:13 10° SW 06:36:27 59° SSE 06:57:21 10° E visible
25 Dec - 08:39:18 10° WSW 09:02:52 71° S 09:20:29 10° ESE daylight
25 Dec - 11:06:34 10° W 11:27:50 56° SSW 11:41:00 10° SE daylight
25 Dec - 13:36:19 10° W 13:48:47 24° SW 13:57:19 10° S daylight
